sat.trackr.live / text

‹ back to catalog

STARLINK-30866

NORAD 58237 · 2023-171H

PAYLOAD ACTIVE UNKNOWN

§ Identity

Operator
Country
US
Launch date
2023-11-08
Launch site
AFETR
Launch vehicle
Mass (kg)
RCS (m²)

Purposes: comms

External: N2YO · Heavens-Above · Gunter

§ Orbital elements

Epoch: 2026-05-25T04:19:12.141696Z

Period
94.27 min
Inclination
43.0044°
Eccentricity
0.0001953
Mean motion
15.27575783 rev/d
Perigee alt
481.7 km
Apogee alt
484.4 km
Semi-major
6,861.2 km
B*
6.2353e-5
RAAN
213.1687°
Arg perigee
272.8609°
Mean anomaly
87.2019°
Rev number
14,143

§ Raw data

STARLINK-308661 58237U 23171H   26145.18000164  .00001454  00000+0  62353-4 0  99932 58237  43.0044 213.1687 0001953 272.8609  87.2019 15.27575783141432

JSON: /api/v1/satellites/58237 · /tle

For live sub-satellite position, see the globe view (requires WebGL).

§ Visibility from observer

Set your observer location to see the next 7 days of passes ≥ 10°. The values pass through the URL so the page stays shareable.

No JS? Fill the form by hand. The geolocation button needs JavaScript.